Location: Rotheul
(50.2849°N, 11.2349°E)
Time: 18:52:44
(UTC+01:00)

Envisat - Pass Details

Date: 25 October 2019
Orbit: 764 x 766 km, 98.1° (Epoch: 20 November)

Event Time Altitude Azimuth Distance (km) Brightness Sun altitude
Rises 19:44:31 0° 183° (S) 3,221 6.3 -16.6°
Reaches altitude 10° 19:46:55 10° 190° (S) 2,299 5.6 -16.9°
Maximum altitude 19:51:44 44° 262° (W) 1,060 4.2 -17.7°
Drops below altitude 10° 19:56:37 10° 334° (NNW) 2,315 5.8 -18.5°
Sets 19:59:02 0° 341° (NNW) 3,246 6.5 -18.9°
